Location: Bieujac
(44.5398°N, 0.1549°W)
Time: 05:23:11
(UTC+00:00)

Helios 1A Rocket - Pass Details

Date: 17 November 2019
Orbit: 564 x 588 km, 98.3° (Epoch: 08 December)

Event Time Altitude Azimuth Distance (km) Brightness Sun altitude
Rises 05:21:23 0° 17° (NNE) 2,808 6.5 -17.3°
Reaches altitude 10° 05:23:36 10° 22° (NNE) 1,900 5.7 -17.0°
Maximum altitude 05:27:39 57° 101° (ESE) 679 3.6 -16.2°
Drops below altitude 10° 05:31:38 10° 181° (S) 1,870 5.7 -15.6°
Sets 05:33:47 0° 185° (S) 2,758 6.5 -15.2°
